TimeMST,TemperatureF,Dew PointF,Humidity,Sea Level PressureIn,VisibilityMPH,Wind Direction,Wind SpeedMPH,Gust SpeedMPH,PrecipitationIn,Events,Conditions,WindDirDegrees,DateUTC
12:52 AM,-2.0,-6.0,83,30.48,8.0,NNW,4.6,-,N/A,,Clear,330,2014-01-03 07:52:00
1:52 AM,-9.0,-14.1,79,30.51,10.0,Calm,Calm,-,N/A,,Clear,0,2014-01-03 08:52:00
2:52 AM,-9.0,-13.0,83,30.50,9.0,North,4.6,-,N/A,,Partly Cloudy,10,2014-01-03 09:52:00
3:52 AM,-9.0,-14.1,79,30.48,10.0,NNW,3.5,-,N/A,,Clear,330,2014-01-03 10:52:00
4:30 AM,-11.0,-16.1,78,30.19,9.0,Calm,Calm,-,N/A,,Partly Cloudy,0,2014-01-03 11:30:00
4:52 AM,-11.0,-16.1,78,30.48,9.0,Calm,Calm,-,N/A,,Partly Cloudy,0,2014-01-03 11:52:00
5:02 AM,-11.0,-15.0,83,30.18,1.5,WNW,3.5,-,N/A,,Scattered Clouds,290,2014-01-03 12:02:00
5:05 AM,-9.9,-14.1,82,30.18,0.8,WNW,3.5,-,N/A,,Mist,300,2014-01-03 12:05:00
5:52 AM,-9.9,-13.0,86,30.52,0.2,Calm,Calm,-,N/A,Fog,Light Freezing Fog,0,2014-01-03 12:52:00
6:52 AM,-11.9,-15.0,86,30.58,0.5,Calm,Calm,-,N/A,Fog,Light Freezing Fog,0,2014-01-03 13:52:00
7:07 AM,-11.9,-17.0,78,30.16,1.5,Calm,Calm,-,N/A,,Haze,0,2014-01-03 14:07:00
7:16 AM,-11.9,-18.0,74,30.17,3.0,Calm,Calm,-,N/A,,Haze,0,2014-01-03 14:16:00
7:52 AM,-11.0,-15.0,83,30.58,1.0,Calm,Calm,-,N/A,,Mist,0,2014-01-03 14:52:00
8:08 AM,-9.9,-14.1,82,30.17,2.5,Calm,Calm,-,N/A,,Overcast,0,2014-01-03 15:08:00
8:19 AM,-9.0,-11.9,87,30.17,4.0,Calm,Calm,-,N/A,,Overcast,0,2014-01-03 15:19:00
8:36 AM,-6.0,-9.0,87,30.17,6.0,Calm,Calm,-,N/A,,Scattered Clouds,0,2014-01-03 15:36:00
8:52 AM,-5.1,-7.1,91,30.57,6.0,Calm,Calm,-,N/A,,Clear,0,2014-01-03 15:52:00
9:52 AM,1.9,-0.0,91,30.51,9.0,Calm,Calm,-,N/A,,Clear,0,2014-01-03 16:52:00
10:52 AM,10.0,3.9,76,30.44,10.0,SW,3.5,-,N/A,,Clear,230,2014-01-03 17:52:00
11:52 AM,12.0,6.1,77,30.37,10.0,SSW,4.6,-,N/A,,Clear,210,2014-01-03 18:52:00
12:52 PM,16.0,8.1,71,30.29,10.0,Calm,Calm,-,N/A,,Clear,0,2014-01-03 19:52:00
1:52 PM,24.1,9.0,53,30.23,10.0,Calm,Calm,-,N/A,,Clear,0,2014-01-03 20:52:00
2:52 PM,21.0,9.0,60,30.23,10.0,North,4.6,-,N/A,,Clear,360,2014-01-03 21:52:00
3:52 PM,18.0,7.0,62,30.23,10.0,NNW,8.1,-,N/A,,Clear,330,2014-01-03 22:52:00
4:52 PM,12.0,3.9,70,30.25,10.0,West,4.6,-,N/A,,Clear,280,2014-01-03 23:52:00
5:52 PM,6.1,1.9,83,30.31,10.0,West,5.8,-,N/A,,Clear,270,2014-01-04 00:52:00
6:52 PM,1.0,-2.0,87,30.33,10.0,Calm,Calm,-,N/A,,Clear,0,2014-01-04 01:52:00
7:52 PM,-2.0,-6.0,83,30.33,10.0,Calm,Calm,-,N/A,,Clear,0,2014-01-04 02:52:00
8:52 PM,-2.9,-6.0,87,30.30,8.0,Calm,Calm,-,N/A,,Clear,0,2014-01-04 03:52:00
9:52 PM,-0.9,-4.0,87,30.23,7.0,North,6.9,-,N/A,,Clear,350,2014-01-04 04:52:00
10:52 PM,-0.9,-5.1,83,30.17,8.0,NNE,3.5,-,N/A,,Clear,30,2014-01-04 05:52:00
11:52 PM,-2.9,-7.1,82,30.16,8.0,Calm,Calm,-,N/A,,Clear,0,2014-01-04 06:52:00